Time,TemperatureF,DewpointF,PressureIn,WindDirection,WindDirectionDegrees,WindSpeedMPH,WindSpeedGustMPH,Humidity,HourlyPrecipIn,Conditions,Clouds,dailyrainin,SoftwareType,DateUTC
2013-03-14 00:00:00,26.4,16.6,30.23,West,281,1.0,4.0,66,0.00,CLR,OVC,0.00,WeatherDisplay:10.37,2013-03-14 04:00:00,
2013-03-14 00:05:00,26.4,16.6,30.23,West,281,2.0,3.0,66,0.00,CLR,OVC,0.00,WeatherDisplay:10.37,2013-03-14 04:05:00,
2013-03-14 00:10:00,26.3,16.5,30.23,West,281,2.0,3.0,66,0.00,CLR,OVC,0.00,WeatherDisplay:10.37,2013-03-14 04:10:00,
2013-03-14 00:16:00,26.2,16.7,30.23,West,281,1.0,2.0,67,0.00,CLR,OVC,0.00,WeatherDisplay:10.37,2013-03-14 04:16:00,
2013-03-14 00:25:00,26.2,16.7,30.23,WSW,248,2.0,5.0,67,0.00,CLR,OVC,0.00,WeatherDisplay:10.37,2013-03-14 04:25:00,
2013-03-14 00:30:00,26.2,16.7,30.23,SW,222,1.0,3.0,67,0.00,CLR,OVC,0.00,WeatherDisplay:10.37,2013-03-14 04:30:00,
2013-03-14 00:35:00,26.2,17.1,30.23,SW,221,1.0,4.0,68,0.00,CLR,OVC,0.00,WeatherDisplay:10.37,2013-03-14 04:35:00,
2013-03-14 00:40:00,26.1,17.0,30.23,SW,221,1.0,3.0,68,0.00,CLR,OVC,0.00,WeatherDisplay:10.37,2013-03-14 04:40:00,
2013-03-14 00:45:00,26.1,17.3,30.23,SW,221,1.0,3.0,69,0.00,CLR,OVC,0.00,WeatherDisplay:10.37,2013-03-14 04:45:00,
2013-03-14 00:50:00,26.1,17.3,30.23,SW,221,1.0,4.0,69,0.00,CLR,OVC,0.00,WeatherDisplay:10.37,2013-03-14 04:50:00,
2013-03-14 00:55:00,26.1,17.3,30.23,SW,222,1.0,3.0,69,0.00,CLR,OVC,0.00,WeatherDisplay:10.37,2013-03-14 04:55:00,
2013-03-14 01:00:00,26.2,17.4,30.23,WSW,254,0.0,4.0,69,0.00,CLR,OVC,0.00,WeatherDisplay:10.37,2013-03-14 05:00:00,
2013-03-14 01:05:00,26.2,17.4,30.23,West,273,1.0,3.0,69,0.00,CLR,OVC,0.00,WeatherDisplay:10.37,2013-03-14 05:05:00,
2013-03-14 01:10:00,26.2,17.4,30.23,West,268,1.0,4.0,69,0.00,CLR,OVC,0.00,WeatherDisplay:10.37,2013-03-14 05:10:00,
2013-03-14 01:15:00,26.2,17.5,30.23,West,267,1.0,3.0,69,0.00,CLR,OVC,0.00,WeatherDisplay:10.37,2013-03-14 05:15:00,
2013-03-14 01:20:00,26.3,17.5,30.23,West,267,1.0,2.0,69,0.00,CLR,OVC,0.00,WeatherDisplay:10.37,2013-03-14 05:20:00,
2013-03-14 01:25:00,26.3,17.5,30.23,West,267,1.0,3.0,69,0.00,CLR,OVC,0.00,WeatherDisplay:10.37,2013-03-14 05:25:00,
2013-03-14 01:30:00,26.2,17.4,30.23,West,267,1.0,2.0,69,0.00,CLR,OVC,0.00,WeatherDisplay:10.37,2013-03-14 05:30:00,
2013-03-14 01:35:00,26.1,17.3,30.23,West,267,1.0,3.0,69,0.00,CLR,OVC,0.00,WeatherDisplay:10.37,2013-03-14 05:35:00,
2013-03-14 01:40:00,26.1,17.3,30.23,West,267,1.0,4.0,69,0.00,CLR,OVC,0.00,WeatherDisplay:10.37,2013-03-14 05:40:00,
2013-03-14 01:45:00,26.1,17.3,30.23,West,273,1.0,3.0,69,0.00,CLR,OVC,0.00,WeatherDisplay:10.37,2013-03-14 05:45:00,
2013-03-14 01:50:00,26.2,17.4,30.23,West,278,0.0,3.0,69,0.00,CLR,OVC,0.00,WeatherDisplay:10.37,2013-03-14 05:50:00,
2013-03-14 01:55:00,26.3,17.5,30.23,West,278,1.0,2.0,69,0.00,CLR,OVC,0.00,WeatherDisplay:10.37,2013-03-14 05:55:00,
2013-03-14 02:00:00,26.3,17.5,30.23,West,278,1.0,3.0,69,0.00,CLR,OVC,0.00,WeatherDisplay:10.37,2013-03-14 06:00:00,
2013-03-14 02:05:00,26.3,17.5,30.23,West,278,1.0,3.0,69,0.00,CLR,OVC,0.00,WeatherDisplay:10.37,2013-03-14 06:05:00,
2013-03-14 02:10:00,26.2,17.7,30.23,West,277,1.0,4.0,70,0.00,CLR,OVC,0.00,WeatherDisplay:10.37,2013-03-14 06:10:00,
2013-03-14 02:15:00,26.2,17.4,30.23,West,273,0.0,4.0,69,0.00,CLR,OVC,0.00,WeatherDisplay:10.37,2013-03-14 06:15:00,
2013-03-14 02:20:00,26.2,17.7,30.24,West,271,0.0,3.0,70,0.00,CLR,OVC,0.00,WeatherDisplay:10.37,2013-03-14 06:20:00,
2013-03-14 02:25:00,26.2,17.7,30.24,West,271,0.0,3.0,70,0.00,CLR,OVC,0.00,WeatherDisplay:10.37,2013-03-14 06:25:00,
2013-03-14 02:30:00,26.2,17.7,30.24,West,271,0.0,2.0,70,0.00,CLR,OVC,0.00,WeatherDisplay:10.37,2013-03-14 06:30:00,
2013-03-14 02:35:00,26.2,17.7,30.24,West,271,0.0,2.0,70,0.00,CLR,OVC,0.00,WeatherDisplay:10.37,2013-03-14 06:35:00,
2013-03-14 02:40:00,26.2,17.7,30.24,West,271,1.0,3.0,70,0.00,CLR,OVC,0.00,WeatherDisplay:10.37,2013-03-14 06:40:00,
2013-03-14 02:45:00,26.3,17.8,30.24,West,271,1.0,4.0,70,0.00,CLR,OVC,0.00,WeatherDisplay:10.37,2013-03-14 06:45:00,
2013-03-14 02:50:00,26.4,17.9,30.24,West,271,1.0,2.0,70,0.00,CLR,OVC,0.00,WeatherDisplay:10.37,2013-03-14 06:50:00,
2013-03-14 02:55:00,26.4,17.9,30.24,West,271,1.0,4.0,70,0.00,CLR,OVC,0.00,WeatherDisplay:10.37,2013-03-14 06:55:00,
2013-03-14 03:00:00,26.4,17.9,30.23,West,271,0.0,2.0,70,0.00,CLR,OVC,0.00,WeatherDisplay:10.37,2013-03-14 07:00:00,
2013-03-14 03:05:00,26.4,17.9,30.23,West,271,1.0,1.0,70,0.00,CLR,OVC,0.00,WeatherDisplay:10.37,2013-03-14 07:05:00,
2013-03-14 03:10:00,26.4,17.9,30.24,West,271,1.0,2.0,70,0.00,CLR,OVC,0.00,WeatherDisplay:10.37,2013-03-14 07:10:00,
2013-03-14 03:15:00,26.5,18.0,30.24,West,271,0.0,1.0,70,0.00,CLR,OVC,0.00,WeatherDisplay:10.37,2013-03-14 07:15:00,
2013-03-14 03:20:00,26.4,17.9,30.23,West,271,0.0,1.0,70,0.00,CLR,OVC,0.00,WeatherDisplay:10.37,2013-03-14 07:20:00,
2013-03-14 03:25:00,26.4,17.9,30.23,West,271,0.0,1.0,70,0.00,CLR,OVC,0.00,WeatherDisplay:10.37,2013-03-14 07:25:00,
2013-03-14 03:30:00,26.3,18.2,30.23,West,271,0.0,2.0,71,0.00,CLR,OVC,0.00,WeatherDisplay:10.37,2013-03-14 07:30:00,
2013-03-14 03:35:00,26.2,18.1,30.24,West,271,0.0,1.0,71,0.00,CLR,OVC,0.00,WeatherDisplay:10.37,2013-03-14 07:35:00,
2013-03-14 03:40:00,26.1,18.0,30.23,West,271,0.0,0.0,71,0.00,CLR,OVC,0.00,WeatherDisplay:10.37,2013-03-14 07:40:00,
2013-03-14 03:45:00,25.9,17.8,30.23,West,271,0.0,1.0,71,0.00,CLR,OVC,0.00,WeatherDisplay:10.37,2013-03-14 07:45:00,
2013-03-14 03:50:00,25.8,18.0,30.23,West,271,0.0,2.0,72,0.00,CLR,OVC,0.00,WeatherDisplay:10.37,2013-03-14 07:50:00,
2013-03-14 03:55:00,25.8,18.0,30.23,West,271,0.0,2.0,72,0.00,CLR,OVC,0.00,WeatherDisplay:10.37,2013-03-14 07:55:00,
2013-03-14 04:00:00,25.8,18.0,30.23,West,271,0.0,1.0,72,0.00,CLR,OVC,0.00,WeatherDisplay:10.37,2013-03-14 08:00:00,
2013-03-14 04:05:00,25.7,18.2,30.23,West,271,0.0,1.0,73,0.00,CLR,OVC,0.00,WeatherDisplay:10.37,2013-03-14 08:05:00,
2013-03-14 04:10:00,25.6,18.1,30.23,West,271,0.0,2.0,73,0.00,CLR,OVC,0.00,WeatherDisplay:10.37,2013-03-14 08:10:00,
2013-03-14 04:15:00,25.7,18.2,30.23,West,271,1.0,2.0,73,0.00,CLR,OVC,0.00,WeatherDisplay:10.37,2013-03-14 08:15:00,
2013-03-14 04:20:00,25.8,18.3,30.23,West,271,0.0,2.0,73,0.00,CLR,OVC,0.00,WeatherDisplay:10.37,2013-03-14 08:20:00,
2013-03-14 04:25:00,25.8,18.0,30.23,West,271,0.0,1.0,72,0.00,CLR,OVC,0.00,WeatherDisplay:10.37,2013-03-14 08:25:00,
2013-03-14 04:30:00,25.7,18.2,30.23,West,271,0.0,2.0,73,0.00,CLR,OVC,0.00,WeatherDisplay:10.37,2013-03-14 08:30:00,
2013-03-14 04:35:00,25.5,18.0,30.22,West,271,0.0,1.0,73,0.00,CLR,OVC,0.00,WeatherDisplay:10.37,2013-03-14 08:35:00,
2013-03-14 04:40:00,25.3,17.9,30.22,West,271,0.0,0.0,73,0.00,CLR,OVC,0.00,WeatherDisplay:10.37,2013-03-14 08:40:00,
2013-03-14 04:45:00,25.1,18.0,30.22,West,271,0.0,0.0,74,0.00,CLR,OVC,0.00,WeatherDisplay:10.37,2013-03-14 08:45:00,
2013-03-14 04:50:00,24.9,18.1,30.23,West,271,0.0,1.0,75,0.00,CLR,OVC,0.00,WeatherDisplay:10.37,2013-03-14 08:50:00,
2013-03-14 04:55:00,24.8,18.3,30.23,West,271,0.0,2.0,76,0.00,CLR,OVC,0.00,WeatherDisplay:10.37,2013-03-14 08:55:00,
2013-03-14 05:00:00,25.2,18.7,30.23,West,271,1.0,3.0,76,0.00,CLR,OVC,0.00,WeatherDisplay:10.37,2013-03-14 09:00:00,
2013-03-14 05:05:00,25.6,19.1,30.23,West,271,1.0,3.0,76,0.00,CLR,OVC,0.00,WeatherDisplay:10.37,2013-03-14 09:05:00,
2013-03-14 05:10:00,25.6,19.4,30.23,West,275,1.0,4.0,77,0.00,CLR,OVC,0.00,WeatherDisplay:10.37,2013-03-14 09:10:00,
2013-03-14 05:15:00,25.7,19.2,30.23,West,280,2.0,3.0,76,0.00,CLR,OVC,0.00,WeatherDisplay:10.37,2013-03-14 09:15:00,
2013-03-14 05:20:00,25.9,19.7,30.23,West,281,1.0,3.0,77,0.00,CLR,OVC,0.00,WeatherDisplay:10.37,2013-03-14 09:20:00,
2013-03-14 05:25:00,26.0,19.4,30.23,NW,312,3.0,4.0,76,0.00,CLR,OVC,0.00,WeatherDisplay:10.37,2013-03-14 09:25:00,
2013-03-14 05:30:00,26.1,19.6,30.23,North,352,2.0,4.0,76,0.00,CLR,OVC,0.00,WeatherDisplay:10.37,2013-03-14 09:30:00,
2013-03-14 05:35:00,26.1,19.5,30.23,North,5,2.0,3.0,76,0.00,CLR,OVC,0.00,WeatherDisplay:10.37,2013-03-14 09:35:00,
2013-03-14 05:40:00,26.0,19.5,30.23,North,352,2.0,4.0,76,0.00,CLR,OVC,0.00,WeatherDisplay:10.37,2013-03-14 09:40:00,
2013-03-14 05:45:00,25.7,19.2,30.23,NNW,344,2.0,4.0,76,0.00,CLR,OVC,0.00,WeatherDisplay:10.37,2013-03-14 09:45:00,
2013-03-14 05:50:00,25.6,19.1,30.23,NNW,344,3.0,4.0,76,0.00,CLR,OVC,0.00,WeatherDisplay:10.37,2013-03-14 09:50:00,
2013-03-14 05:55:00,25.5,19.0,30.23,NNW,344,1.0,3.0,76,0.00,CLR,OVC,0.00,WeatherDisplay:10.37,2013-03-14 09:55:00,
2013-03-14 06:00:00,25.4,18.9,30.24,NNW,344,0.0,3.0,76,0.00,CLR,OVC,0.00,WeatherDisplay:10.37,2013-03-14 10:00:00,
2013-03-14 06:05:00,25.2,18.7,30.24,NNW,344,0.0,1.0,76,0.00,CLR,OVC,0.00,WeatherDisplay:10.37,2013-03-14 10:05:00,
2013-03-14 06:10:00,25.1,18.9,30.24,NNW,344,0.0,0.0,77,0.00,CLR,OVC,0.00,WeatherDisplay:10.37,2013-03-14 10:10:00,
2013-03-14 06:15:00,24.8,18.6,30.24,NNW,344,0.0,0.0,77,0.00,CLR,OVC,0.00,WeatherDisplay:10.37,2013-03-14 10:15:00,
2013-03-14 06:20:00,24.6,18.4,30.24,NNW,344,0.0,0.0,77,0.00,CLR,OVC,0.00,WeatherDisplay:10.37,2013-03-14 10:20:00,
2013-03-14 06:25:00,24.4,18.2,30.24,NNW,344,0.0,0.0,77,0.00,CLR,OVC,0.00,WeatherDisplay:10.37,2013-03-14 10:25:00,
2013-03-14 06:30:00,24.2,18.0,30.24,NNW,344,0.0,0.0,77,0.00,CLR,OVC,0.00,WeatherDisplay:10.37,2013-03-14 10:30:00,
2013-03-14 06:35:00,23.9,17.7,30.24,NNW,344,0.0,0.0,77,0.00,CLR,OVC,0.00,WeatherDisplay:10.37,2013-03-14 10:35:00,
2013-03-14 06:40:00,23.6,17.7,30.24,NNW,344,0.0,0.0,78,0.00,CLR,OVC,0.00,WeatherDisplay:10.37,2013-03-14 10:40:00,
2013-03-14 06:45:00,23.2,17.7,30.24,NNW,344,0.0,0.0,79,0.00,CLR,OVC,0.00,WeatherDisplay:10.37,2013-03-14 10:45:00,
2013-03-14 06:50:00,22.9,17.3,30.24,NNW,344,0.0,0.0,79,0.00,CLR,OVC,0.00,WeatherDisplay:10.37,2013-03-14 10:50:00,
2013-03-14 06:55:00,22.4,16.9,30.24,NNW,344,0.0,1.0,79,0.00,CLR,OVC,0.00,WeatherDisplay:10.37,2013-03-14 10:55:00,
2013-03-14 07:00:00,22.0,16.8,30.24,NNW,344,0.0,2.0,80,0.00,CLR,OVC,0.00,WeatherDisplay:10.37,2013-03-14 11:00:00,
2013-03-14 07:05:00,21.8,16.9,30.24,NNW,344,1.0,2.0,81,0.00,CLR,OVC,0.00,WeatherDisplay:10.37,2013-03-14 11:05:00,
2013-03-14 07:10:00,21.8,17.1,30.24,NNW,344,0.0,1.0,82,0.00,CLR,OVC,0.00,WeatherDisplay:10.37,2013-03-14 11:10:00,
2013-03-14 07:15:00,21.6,16.7,30.24,NNW,344,1.0,1.0,81,0.00,CLR,OVC,0.00,WeatherDisplay:10.37,2013-03-14 11:15:00,
2013-03-14 07:20:00,21.5,16.9,30.24,NNW,344,0.0,2.0,82,0.00,CLR,OVC,0.00,WeatherDisplay:10.37,2013-03-14 11:20:00,
2013-03-14 07:25:00,21.3,16.7,30.25,NNW,344,0.0,2.0,82,0.00,CLR,OVC,0.00,WeatherDisplay:10.37,2013-03-14 11:25:00,
2013-03-14 07:30:00,21.1,16.4,30.25,NNW,344,0.0,0.0,82,0.00,CLR,OVC,0.00,WeatherDisplay:10.37,2013-03-14 11:30:00,
2013-03-14 07:35:00,20.9,16.5,30.25,NNW,344,0.0,0.0,83,0.00,CLR,OVC,0.00,WeatherDisplay:10.37,2013-03-14 11:35:00,
2013-03-14 07:40:00,20.6,16.2,30.25,NNW,344,0.0,1.0,83,0.00,CLR,OVC,0.00,WeatherDisplay:10.37,2013-03-14 11:40:00,
2013-03-14 07:45:00,20.4,16.3,30.25,NNW,344,0.0,3.0,84,0.00,CLR,OVC,0.00,WeatherDisplay:10.37,2013-03-14 11:45:00,
2013-03-14 07:50:00,20.2,16.1,30.25,NNW,344,0.0,0.0,84,0.00,CLR,OVC,0.00,WeatherDisplay:10.37,2013-03-14 11:50:00,
2013-03-14 07:55:00,20.1,16.0,30.25,NNW,344,0.0,0.0,84,0.00,CLR,OVC,0.00,WeatherDisplay:10.37,2013-03-14 11:55:00,
2013-03-14 08:00:00,19.9,15.8,30.25,NNW,344,0.0,1.0,84,0.00,CLR,OVC,0.00,WeatherDisplay:10.37,2013-03-14 12:00:00,
2013-03-14 08:05:00,19.7,15.9,30.25,NNW,344,0.0,0.0,85,0.00,CLR,OVC,0.00,WeatherDisplay:10.37,2013-03-14 12:05:00,
2013-03-14 08:10:00,19.7,15.9,30.25,NNW,344,0.0,0.0,85,0.00,CLR,OVC,0.00,WeatherDisplay:10.37,2013-03-14 12:10:00,
2013-03-14 08:15:00,19.7,15.9,30.25,NNW,344,0.0,0.0,85,0.00,CLR,OVC,0.00,WeatherDisplay:10.37,2013-03-14 12:15:00,
2013-03-14 08:20:00,19.7,16.2,30.25,NNW,344,0.0,0.0,86,0.00,CLR,OVC,0.00,WeatherDisplay:10.37,2013-03-14 12:20:00,
2013-03-14 08:25:00,19.7,16.2,30.26,NNW,344,0.0,0.0,86,0.00,CLR,OVC,0.00,WeatherDisplay:10.37,2013-03-14 12:25:00,
2013-03-14 08:30:00,19.8,16.3,30.26,NNW,344,0.0,0.0,86,0.00,CLR,OVC,0.00,WeatherDisplay:10.37,2013-03-14 12:30:00,
2013-03-14 08:35:00,20.0,16.5,30.26,NNW,344,0.0,0.0,86,0.00,CLR,OVC,0.00,WeatherDisplay:10.37,2013-03-14 12:35:00,
2013-03-14 08:40:00,20.3,16.8,30.26,NNW,344,0.0,0.0,86,0.00,CLR,OVC,0.00,WeatherDisplay:10.37,2013-03-14 12:40:00,
2013-03-14 08:45:00,20.5,17.0,30.26,NNW,344,0.0,0.0,86,0.00,CLR,OVC,0.00,WeatherDisplay:10.37,2013-03-14 12:45:00,
2013-03-14 08:50:00,20.8,17.3,30.26,NNW,344,0.0,0.0,86,0.00,CLR,OVC,0.00,WeatherDisplay:10.37,2013-03-14 12:50:00,
2013-03-14 08:55:00,21.1,17.6,30.27,NNW,344,0.0,0.0,86,0.00,CLR,OVC,0.00,WeatherDisplay:10.37,2013-03-14 12:55:00,
2013-03-14 09:00:00,21.5,17.7,30.27,NNW,344,0.0,0.0,85,0.00,CLR,OVC,0.00,WeatherDisplay:10.37,2013-03-14 13:00:00,
2013-03-14 09:05:00,21.9,18.1,30.27,NNW,344,0.0,0.0,85,0.00,CLR,OVC,0.00,WeatherDisplay:10.37,2013-03-14 13:05:00,
2013-03-14 09:10:00,22.4,18.5,30.27,NNW,344,0.0,0.0,85,0.00,CLR,OVC,0.00,WeatherDisplay:10.37,2013-03-14 13:10:00,
2013-03-14 09:15:00,22.9,19.1,30.27,NNW,344,0.0,1.0,85,0.00,CLR,OVC,0.00,WeatherDisplay:10.37,2013-03-14 13:15:00,
2013-03-14 09:20:00,23.5,19.1,30.27,NNW,344,0.0,1.0,83,0.00,CLR,OVC,0.00,WeatherDisplay:10.37,2013-03-14 13:20:00,
2013-03-14 09:25:00,24.2,19.5,30.27,NNW,344,1.0,2.0,82,0.00,CLR,OVC,0.00,WeatherDisplay:10.37,2013-03-14 13:25:00,
2013-03-14 09:30:00,24.8,19.8,30.27,NNW,344,1.0,3.0,81,0.00,CLR,OVC,0.00,WeatherDisplay:10.37,2013-03-14 13:30:00,
2013-03-14 09:35:00,25.6,20.0,30.27,SSW,194,1.0,3.0,79,0.00,CLR,OVC,0.00,WeatherDisplay:10.37,2013-03-14 13:35:00,
2013-03-14 09:40:00,26.3,19.7,30.27,South,182,2.0,3.0,76,0.00,CLR,OVC,0.00,WeatherDisplay:10.37,2013-03-14 13:40:00,
2013-03-14 09:45:00,26.8,19.6,30.27,South,183,1.0,3.0,74,0.00,CLR,OVC,0.00,WeatherDisplay:10.37,2013-03-14 13:45:00,
2013-03-14 09:50:00,27.3,19.8,30.27,South,183,1.0,3.0,73,0.00,CLR,OVC,0.00,WeatherDisplay:10.37,2013-03-14 13:50:00,
2013-03-14 09:55:00,28.0,20.1,30.27,South,183,2.0,3.0,72,0.00,CLR,OVC,0.00,WeatherDisplay:10.37,2013-03-14 13:55:00,
2013-03-14 10:00:00,28.7,20.1,30.27,South,183,2.0,4.0,70,0.00,FEW,OVC,0.00,WeatherDisplay:10.37,2013-03-14 14:00:00,
2013-03-14 10:05:00,29.3,20.4,30.27,South,183,2.0,2.0,69,0.00,FEW,OVC,0.00,WeatherDisplay:10.37,2013-03-14 14:05:00,
2013-03-14 10:10:00,29.7,20.4,30.27,South,183,2.0,3.0,68,0.00,FEW,OVC,0.00,WeatherDisplay:10.37,2013-03-14 14:10:00,
2013-03-14 10:15:00,30.2,20.9,30.27,South,183,1.0,2.0,68,0.00,FEW,OVC,0.00,WeatherDisplay:10.37,2013-03-14 14:15:00,
2013-03-14 10:20:00,30.9,21.2,30.27,South,183,0.0,3.0,67,0.00,FEW,OVC,0.00,WeatherDisplay:10.37,2013-03-14 14:20:00,
2013-03-14 10:25:00,31.5,21.4,30.27,South,183,0.0,0.0,66,0.00,FEW,OVC,0.00,WeatherDisplay:10.37,2013-03-14 14:25:00,
2013-03-14 10:30:00,32.1,21.6,30.27,South,183,0.0,3.0,65,0.00,FEW,OVC,0.00,WeatherDisplay:10.37,2013-03-14 14:30:00,
2013-03-14 10:35:00,31.8,21.4,30.27,South,183,1.0,3.0,65,0.00,FEW,OVC,0.00,WeatherDisplay:10.37,2013-03-14 14:35:00,
2013-03-14 10:40:00,32.1,21.7,30.27,South,183,1.0,3.0,65,0.00,FEW,OVC,0.00,WeatherDisplay:10.37,2013-03-14 14:40:00,
2013-03-14 10:45:00,32.1,21.6,30.27,South,183,0.0,2.0,65,0.00,FEW,OVC,0.00,WeatherDisplay:10.37,2013-03-14 14:45:00,
2013-03-14 10:50:00,32.5,22.0,30.27,SSW,207,3.0,5.0,65,0.00,FEW,OVC,0.00,WeatherDisplay:10.37,2013-03-14 14:50:00,
2013-03-14 10:55:00,32.5,21.6,30.27,SW,219,1.0,3.0,64,0.00,FEW,OVC,0.00,WeatherDisplay:10.37,2013-03-14 14:55:00,
2013-03-14 11:00:00,32.5,21.7,30.27,SW,223,2.0,5.0,64,0.00,FEW,OVC,0.00,WeatherDisplay:10.37,2013-03-14 15:00:00,
2013-03-14 11:05:00,32.4,21.6,30.27,SW,234,2.0,5.0,64,0.00,FEW,OVC,0.00,WeatherDisplay:10.37,2013-03-14 15:05:00,
2013-03-14 11:10:00,32.7,21.9,30.26,SW,233,3.0,6.0,64,0.00,FEW,OVC,0.00,WeatherDisplay:10.37,2013-03-14 15:10:00,
2013-03-14 11:15:00,33.1,22.2,30.26,SW,225,1.0,6.0,64,0.00,FEW,OVC,0.00,WeatherDisplay:10.37,2013-03-14 15:15:00,
2013-03-14 11:20:00,33.2,22.0,30.26,SW,228,1.0,4.0,63,0.00,FEW,OVC,0.00,WeatherDisplay:10.37,2013-03-14 15:20:00,
2013-03-14 11:25:00,32.7,21.5,30.26,WNW,283,5.0,7.0,63,0.00,FEW,OVC,0.00,WeatherDisplay:10.37,2013-03-14 15:25:00,
2013-03-14 11:30:00,32.3,21.1,30.26,WNW,287,2.0,5.0,63,0.00,FEW,OVC,0.00,WeatherDisplay:10.37,2013-03-14 15:30:00,
2013-03-14 11:35:00,32.5,21.7,30.26,West,278,0.0,2.0,64,0.00,FEW,OVC,0.00,WeatherDisplay:10.37,2013-03-14 15:35:00,
2013-03-14 11:40:00,32.9,22.1,30.26,West,269,3.0,6.0,64,0.00,FEW,OVC,0.00,WeatherDisplay:10.37,2013-03-14 15:40:00,
2013-03-14 11:45:00,33.2,21.6,30.26,West,270,1.0,4.0,62,0.00,FEW,OVC,0.00,WeatherDisplay:10.37,2013-03-14 15:45:00,
2013-03-14 11:50:00,33.4,21.7,30.26,West,261,2.0,5.0,62,0.00,FEW,OVC,0.00,WeatherDisplay:10.37,2013-03-14 15:50:00,
2013-03-14 11:51:00,30.4,22.1,30.10,SSW,209,1.0,3.0,71,0.00,CLR,OVC,0.00,WeatherDisplay:10.37,2013-03-14 15:51:00,
2013-03-14 11:55:00,33.9,21.4,30.26,SW,230,1.0,6.0,60,0.00,FEW,OVC,0.00,WeatherDisplay:10.37,2013-03-14 15:55:00,
2013-03-14 11:56:00,30.5,21.9,30.10,SW,219,1.0,2.0,70,0.00,CLR,OVC,0.00,WeatherDisplay:10.37,2013-03-14 15:56:00,
2013-03-14 12:00:00,34.4,20.7,30.25,SSW,210,1.0,7.0,57,0.00,FEW,OVC,0.00,WeatherDisplay:10.37,2013-03-14 16:00:00,
2013-03-14 12:01:00,30.6,22.3,30.10,SW,225,0.0,2.0,71,0.00,CLR,OVC,0.00,WeatherDisplay:10.37,2013-03-14 16:01:00,
2013-03-14 12:05:00,34.9,20.8,30.25,SW,217,5.0,9.0,56,0.00,FEW,OVC,0.00,WeatherDisplay:10.37,2013-03-14 16:05:00,
2013-03-14 12:06:00,30.7,22.4,30.09,SW,219,0.0,3.0,71,0.00,CLR,OVC,0.00,WeatherDisplay:10.37,2013-03-14 16:06:00,
2013-03-14 12:10:00,34.7,20.2,30.25,SW,233,5.0,7.0,55,0.00,FEW,OVC,0.00,WeatherDisplay:10.37,2013-03-14 16:10:00,
2013-03-14 12:15:00,34.7,20.2,30.25,SW,226,3.0,7.0,55,0.00,FEW,OVC,0.00,WeatherDisplay:10.37,2013-03-14 16:15:00,
2013-03-14 12:20:00,34.7,19.7,30.25,SW,233,2.0,6.0,54,0.00,FEW,OVC,0.00,WeatherDisplay:10.37,2013-03-14 16:20:00,
2013-03-14 12:21:00,30.9,22.6,30.09,SW,219,2.0,3.0,71,0.00,CLR,OVC,0.00,WeatherDisplay:10.37,2013-03-14 16:21:00,
2013-03-14 12:25:00,34.4,19.9,30.25,West,279,1.0,5.0,55,0.00,FEW,OVC,0.00,WeatherDisplay:10.37,2013-03-14 16:25:00,
2013-03-14 12:26:00,31.0,23.0,30.09,SW,226,2.0,3.0,72,0.00,CLR,OVC,0.00,WeatherDisplay:10.37,2013-03-14 16:26:00,
2013-03-14 12:30:00,35.0,20.0,30.25,WNW,286,3.0,7.0,54,0.00,FEW,OVC,0.00,WeatherDisplay:10.37,2013-03-14 16:30:00,
2013-03-14 12:31:00,31.1,23.1,30.09,SW,221,3.0,4.0,72,0.00,CLR,OVC,0.00,WeatherDisplay:10.37,2013-03-14 16:31:00,
2013-03-14 12:35:00,34.7,18.4,30.25,West,274,3.0,7.0,51,0.00,FEW,OVC,0.00,WeatherDisplay:10.37,2013-03-14 16:35:00,
2013-03-14 12:40:00,34.3,17.1,30.24,West,281,3.0,8.0,49,0.00,FEW,OVC,0.00,WeatherDisplay:10.37,2013-03-14 16:40:00,
2013-03-14 12:45:00,34.2,17.5,30.24,West,279,5.0,9.0,50,0.00,FEW,OVC,0.00,WeatherDisplay:10.37,2013-03-14 16:45:00,
2013-03-14 12:50:00,34.7,18.4,30.24,West,275,5.0,7.0,51,0.00,FEW,OVC,0.00,WeatherDisplay:10.37,2013-03-14 16:50:00,
2013-03-14 12:55:00,34.6,18.8,30.24,WNW,284,2.0,5.0,52,0.00,FEW,OVC,0.00,WeatherDisplay:10.37,2013-03-14 16:55:00,
2013-03-14 13:00:00,34.8,20.3,30.23,West,281,3.0,5.0,55,0.00,SCT,OVC,0.00,WeatherDisplay:10.37,2013-03-14 17:00:00,
2013-03-14 13:05:00,35.2,20.6,30.23,West,274,3.0,8.0,55,0.00,SCT,OVC,0.00,WeatherDisplay:10.37,2013-03-14 17:05:00,
2013-03-14 13:10:00,35.3,21.1,30.23,West,272,3.0,10.0,56,0.00,SCT,OVC,0.00,WeatherDisplay:10.37,2013-03-14 17:10:00,
2013-03-14 13:15:00,35.6,20.1,30.23,WSW,242,6.0,8.0,53,0.00,SCT,OVC,0.00,WeatherDisplay:10.37,2013-03-14 17:15:00,
2013-03-14 13:20:00,35.9,20.0,30.23,SW,214,5.0,7.0,52,0.00,SCT,OVC,0.00,WeatherDisplay:10.37,2013-03-14 17:20:00,
2013-03-14 13:25:00,36.6,20.1,30.23,SSW,197,3.0,6.0,51,0.00,SCT,OVC,0.00,WeatherDisplay:10.37,2013-03-14 17:25:00,
2013-03-14 13:30:00,37.0,20.6,30.22,SSW,203,5.0,6.0,51,0.00,SCT,OVC,0.00,WeatherDisplay:10.37,2013-03-14 17:30:00,
2013-03-14 13:35:00,37.1,20.2,30.22,SSW,196,3.0,6.0,50,0.00,SCT,OVC,0.00,WeatherDisplay:10.37,2013-03-14 17:35:00,
2013-03-14 13:40:00,37.1,19.7,30.21,SSW,202,6.0,12.0,49,0.00,SCT,OVC,0.00,WeatherDisplay:10.37,2013-03-14 17:40:00,
2013-03-14 13:45:00,37.2,20.7,30.22,SW,226,6.0,10.0,51,0.00,SCT,OVC,0.00,WeatherDisplay:10.37,2013-03-14 17:45:00,
2013-03-14 13:50:00,37.1,20.2,30.21,SW,229,7.0,12.0,50,0.00,SCT,OVC,0.00,WeatherDisplay:10.37,2013-03-14 17:50:00,
2013-03-14 13:55:00,36.9,20.9,30.21,WSW,246,5.0,9.0,52,0.00,SCT,OVC,0.00,WeatherDisplay:10.37,2013-03-14 17:55:00,
2013-03-14 14:00:00,36.6,21.5,30.21,West,262,2.0,8.0,54,0.00,SCT,OVC,0.00,WeatherDisplay:10.37,2013-03-14 18:00:00,
2013-03-14 14:05:00,37.4,21.8,30.20,WSW,243,7.0,10.0,53,0.00,SCT,OVC,0.00,WeatherDisplay:10.37,2013-03-14 18:05:00,
2013-03-14 14:10:00,37.3,20.8,30.20,SW,229,6.0,13.0,51,0.00,SCT,OVC,0.00,WeatherDisplay:10.37,2013-03-14 18:10:00,
2013-03-14 14:15:00,37.4,21.4,30.20,SW,235,7.0,12.0,52,0.00,SCT,OVC,0.00,WeatherDisplay:10.37,2013-03-14 18:15:00,
2013-03-14 14:20:00,37.4,19.5,30.20,SW,231,3.0,9.0,48,0.00,SCT,OVC,0.00,WeatherDisplay:10.37,2013-03-14 18:20:00,
2013-03-14 14:25:00,37.8,20.3,30.20,SW,216,3.0,10.0,49,0.00,SCT,OVC,0.00,WeatherDisplay:10.37,2013-03-14 18:25:00,
2013-03-14 14:30:00,38.3,19.8,30.20,SW,214,7.0,12.0,47,0.00,SCT,OVC,0.00,WeatherDisplay:10.37,2013-03-14 18:30:00,
2013-03-14 14:36:00,38.0,18.5,30.20,SW,230,5.0,9.0,45,0.00,SCT,OVC,0.00,WeatherDisplay:10.37,2013-03-14 18:36:00,
2013-03-14 14:45:00,38.4,19.9,30.20,WSW,243,6.0,10.0,47,0.00,SCT,OVC,0.00,WeatherDisplay:10.37,2013-03-14 18:45:00,
2013-03-14 14:50:00,38.3,19.3,30.20,WSW,244,7.0,12.0,46,0.00,SCT,OVC,0.00,WeatherDisplay:10.37,2013-03-14 18:50:00,
2013-03-14 14:55:00,38.1,19.1,30.20,WSW,250,6.0,9.0,46,0.00,SCT,OVC,0.00,WeatherDisplay:10.37,2013-03-14 18:55:00,
2013-03-14 15:00:00,38.0,19.6,30.20,WSW,245,3.0,9.0,47,0.00,SCT,OVC,0.00,WeatherDisplay:10.37,2013-03-14 19:00:00,
2013-03-14 15:05:00,37.9,19.9,30.20,WSW,245,6.0,10.0,48,0.00,SCT,OVC,0.00,WeatherDisplay:10.37,2013-03-14 19:05:00,
2013-03-14 15:10:00,37.8,19.3,30.20,SW,232,7.0,12.0,47,0.00,SCT,OVC,0.00,WeatherDisplay:10.37,2013-03-14 19:10:00,
2013-03-14 15:15:00,37.7,19.3,30.19,WSW,242,3.0,10.0,47,0.00,SCT,OVC,0.00,WeatherDisplay:10.37,2013-03-14 19:15:00,
2013-03-14 15:20:00,37.5,20.5,30.19,WSW,241,6.0,12.0,50,0.00,SCT,OVC,0.00,WeatherDisplay:10.37,2013-03-14 19:20:00,
2013-03-14 15:25:00,37.4,20.4,30.19,WSW,249,6.0,13.0,50,0.00,SCT,OVC,0.00,WeatherDisplay:10.37,2013-03-14 19:25:00,
2013-03-14 15:30:00,37.2,20.7,30.19,WSW,253,6.0,13.0,51,0.00,SCT,OVC,0.00,WeatherDisplay:10.37,2013-03-14 19:30:00,
2013-03-14 15:36:00,37.2,21.1,30.19,WSW,246,5.0,9.0,52,0.00,SCT,OVC,0.00,WeatherDisplay:10.37,2013-03-14 19:36:00,
2013-03-14 15:46:00,37.6,22.0,30.19,SW,232,3.0,12.0,53,0.00,SCT,OVC,0.00,WeatherDisplay:10.37,2013-03-14 19:46:00,
2013-03-14 15:51:00,37.7,22.1,30.18,SW,235,5.0,12.0,53,0.00,SCT,OVC,0.00,WeatherDisplay:10.37,2013-03-14 19:51:00,
2013-03-14 16:00:00,37.4,23.1,30.18,SW,231,5.0,9.0,56,0.00,SCT,OVC,0.00,WeatherDisplay:10.37,2013-03-14 20:00:00,
2013-03-14 16:05:00,37.6,23.3,30.18,SW,234,6.0,9.0,56,0.00,SCT,OVC,0.00,WeatherDisplay:10.37,2013-03-14 20:05:00,
2013-03-14 16:10:00,37.7,22.9,30.18,WSW,254,6.0,10.0,55,0.00,SCT,OVC,0.00,WeatherDisplay:10.37,2013-03-14 20:10:00,
2013-03-14 16:15:00,37.3,23.0,30.18,West,262,6.0,13.0,56,0.00,SCT,OVC,0.00,WeatherDisplay:10.37,2013-03-14 20:15:00,
2013-03-14 16:20:00,37.0,22.7,30.18,WSW,248,6.0,12.0,56,0.00,SCT,OVC,0.00,WeatherDisplay:10.37,2013-03-14 20:20:00,
2013-03-14 16:25:00,37.1,23.3,30.18,WSW,248,5.0,8.0,57,0.00,SCT,OVC,0.00,WeatherDisplay:10.37,2013-03-14 20:25:00,
2013-03-14 16:30:00,37.2,23.3,30.17,WSW,241,5.0,7.0,57,0.00,SCT,OVC,0.00,WeatherDisplay:10.37,2013-03-14 20:30:00,
2013-03-14 16:35:00,37.0,22.8,30.18,SW,233,5.0,10.0,56,0.00,SCT,OVC,0.00,WeatherDisplay:10.37,2013-03-14 20:35:00,
2013-03-14 16:40:00,37.0,22.7,30.18,WSW,241,5.0,9.0,56,0.00,SCT,OVC,0.00,WeatherDisplay:10.37,2013-03-14 20:40:00,
2013-03-14 16:45:00,37.0,22.3,30.17,WSW,250,5.0,11.0,55,0.00,SCT,OVC,0.00,WeatherDisplay:10.37,2013-03-14 20:45:00,
2013-03-14 16:50:00,36.3,22.1,30.17,WSW,255,5.0,8.0,56,0.00,SCT,OVC,0.00,WeatherDisplay:10.37,2013-03-14 20:50:00,
2013-03-14 16:55:00,36.6,22.8,30.17,WSW,253,3.0,7.0,57,0.00,SCT,OVC,0.00,WeatherDisplay:10.37,2013-03-14 20:55:00,
2013-03-14 17:00:00,36.9,22.2,30.17,WSW,239,3.0,8.0,55,0.00,BKN,OVC,0.00,WeatherDisplay:10.37,2013-03-14 21:00:00,
2013-03-14 17:05:00,37.0,21.9,30.18,WSW,245,6.0,12.0,54,0.00,BKN,OVC,0.00,WeatherDisplay:10.37,2013-03-14 21:05:00,
2013-03-14 17:10:00,36.5,21.4,30.17,West,268,6.0,8.0,54,0.00,BKN,OVC,0.00,WeatherDisplay:10.37,2013-03-14 21:10:00,
2013-03-14 17:15:00,36.5,21.4,30.17,West,264,3.0,7.0,54,0.00,BKN,OVC,0.00,WeatherDisplay:10.37,2013-03-14 21:15:00,
2013-03-14 17:20:00,36.6,20.6,30.16,WSW,241,6.0,10.0,52,0.00,BKN,OVC,0.00,WeatherDisplay:10.37,2013-03-14 21:20:00,
2013-03-14 17:25:00,36.8,21.3,30.16,SW,222,5.0,8.0,53,0.00,BKN,OVC,0.00,WeatherDisplay:10.37,2013-03-14 21:25:00,
2013-03-14 17:30:00,36.9,20.9,30.16,SW,229,6.0,10.0,52,0.00,BKN,OVC,0.00,WeatherDisplay:10.37,2013-03-14 21:30:00,
2013-03-14 17:35:00,36.7,21.1,30.16,WSW,244,3.0,9.0,53,0.00,BKN,OVC,0.00,WeatherDisplay:10.37,2013-03-14 21:35:00,
2013-03-14 17:40:00,36.5,21.0,30.17,WSW,254,5.0,10.0,53,0.00,BKN,OVC,0.00,WeatherDisplay:10.37,2013-03-14 21:40:00,
2013-03-14 17:45:00,36.2,20.7,30.17,West,259,6.0,9.0,53,0.00,BKN,OVC,0.00,WeatherDisplay:10.37,2013-03-14 21:45:00,
2013-03-14 17:50:00,36.0,19.6,30.17,WSW,250,5.0,9.0,51,0.00,BKN,OVC,0.00,WeatherDisplay:10.37,2013-03-14 21:50:00,
2013-03-14 17:55:00,36.0,20.5,30.17,WSW,238,6.0,9.0,53,0.00,BKN,OVC,0.00,WeatherDisplay:10.37,2013-03-14 21:55:00,
2013-03-14 18:00:00,36.1,20.6,30.17,SW,234,3.0,7.0,53,0.00,BKN,OVC,0.00,WeatherDisplay:10.37,2013-03-14 22:00:00,
2013-03-14 18:05:00,35.8,18.5,30.16,SW,228,3.0,10.0,49,0.00,BKN,OVC,0.00,WeatherDisplay:10.37,2013-03-14 22:05:00,
2013-03-14 18:10:00,35.8,19.9,30.15,SW,232,3.0,6.0,52,0.00,BKN,OVC,0.00,WeatherDisplay:10.37,2013-03-14 22:10:00,
2013-03-14 18:15:00,35.6,19.7,30.15,SW,222,7.0,12.0,52,0.00,BKN,OVC,0.00,WeatherDisplay:10.37,2013-03-14 22:15:00,
2013-03-14 18:20:00,35.4,19.9,30.15,SW,230,5.0,7.0,53,0.00,BKN,OVC,0.00,WeatherDisplay:10.37,2013-03-14 22:20:00,
2013-03-14 18:25:00,35.4,19.5,30.15,SW,232,3.0,7.0,52,0.00,BKN,OVC,0.00,WeatherDisplay:10.37,2013-03-14 22:25:00,
2013-03-14 18:30:00,35.1,18.3,30.16,SW,235,5.0,12.0,50,0.00,BKN,OVC,0.00,WeatherDisplay:10.37,2013-03-14 22:30:00,
2013-03-14 18:35:00,34.9,19.1,30.16,WSW,240,5.0,9.0,52,0.00,BKN,OVC,0.00,WeatherDisplay:10.37,2013-03-14 22:35:00,
2013-03-14 18:40:00,34.8,18.0,30.16,WSW,248,3.0,8.0,50,0.00,BKN,OVC,0.00,WeatherDisplay:10.37,2013-03-14 22:40:00,
2013-03-14 18:45:00,34.6,17.4,30.15,WSW,247,5.0,7.0,49,0.00,BKN,OVC,0.00,WeatherDisplay:10.37,2013-03-14 22:45:00,
2013-03-14 18:50:00,34.5,16.8,30.15,WSW,246,3.0,7.0,48,0.00,BKN,OVC,0.00,WeatherDisplay:10.37,2013-03-14 22:50:00,
2013-03-14 18:55:00,34.4,17.7,30.16,WSW,242,5.0,8.0,50,0.00,BKN,OVC,0.00,WeatherDisplay:10.37,2013-03-14 22:55:00,
2013-03-14 19:00:00,34.2,17.9,30.16,WSW,243,3.0,10.0,51,0.00,SCT,OVC,0.00,WeatherDisplay:10.37,2013-03-14 23:00:00,
2013-03-14 19:05:00,34.1,18.3,30.16,WSW,242,5.0,9.0,52,0.00,SCT,OVC,0.00,WeatherDisplay:10.37,2013-03-14 23:05:00,
2013-03-14 19:10:00,34.0,18.7,30.15,SW,234,5.0,8.0,53,0.00,SCT,OVC,0.00,WeatherDisplay:10.37,2013-03-14 23:10:00,
2013-03-14 19:15:00,33.8,18.0,30.15,WSW,238,5.0,9.0,52,0.00,SCT,OVC,0.00,WeatherDisplay:10.37,2013-03-14 23:15:00,
2013-03-14 19:20:00,33.6,17.8,30.15,WSW,243,3.0,9.0,52,0.00,SCT,OVC,0.00,WeatherDisplay:10.37,2013-03-14 23:20:00,
2013-03-14 19:25:00,33.3,17.6,30.14,WSW,240,5.0,9.0,52,0.00,SCT,OVC,0.00,WeatherDisplay:10.37,2013-03-14 23:25:00,
2013-03-14 19:30:00,33.1,18.2,30.14,SW,234,6.0,7.0,54,0.00,SCT,OVC,0.00,WeatherDisplay:10.37,2013-03-14 23:30:00,
2013-03-14 19:35:00,32.9,18.5,30.14,SW,226,3.0,8.0,55,0.00,SCT,OVC,0.00,WeatherDisplay:10.37,2013-03-14 23:35:00,
2013-03-14 19:40:00,32.7,18.7,30.14,SW,232,3.0,6.0,56,0.00,SCT,OVC,0.00,WeatherDisplay:10.37,2013-03-14 23:40:00,
2013-03-14 19:45:00,32.5,18.9,30.14,WSW,238,2.0,5.0,57,0.00,SCT,OVC,0.00,WeatherDisplay:10.37,2013-03-14 23:45:00,
2013-03-14 19:50:00,32.2,19.1,30.14,WSW,242,3.0,7.0,58,0.00,SCT,OVC,0.00,WeatherDisplay:10.37,2013-03-14 23:50:00,
2013-03-14 19:55:00,32.0,19.3,30.13,SW,236,5.0,6.0,59,0.00,SCT,OVC,0.00,WeatherDisplay:10.37,2013-03-14 23:55:00,
2013-03-14 20:00:00,31.9,19.6,30.13,SW,225,3.0,7.0,60,0.00,SCT,OVC,0.00,WeatherDisplay:10.37,2013-03-15 00:00:00,
2013-03-14 20:05:00,31.7,20.2,30.12,SW,219,2.0,5.0,62,0.00,SCT,OVC,0.00,WeatherDisplay:10.37,2013-03-15 00:05:00,
2013-03-14 20:10:00,31.5,20.3,30.12,SW,219,2.0,6.0,63,0.00,SCT,OVC,0.00,WeatherDisplay:10.37,2013-03-15 00:10:00,
2013-03-14 20:15:00,31.3,20.2,30.12,SW,218,2.0,6.0,63,0.00,SCT,OVC,0.00,WeatherDisplay:10.37,2013-03-15 00:15:00,
2013-03-14 20:20:00,31.1,20.4,30.11,SW,220,2.0,4.0,64,0.00,SCT,OVC,0.00,WeatherDisplay:10.37,2013-03-15 00:20:00,
2013-03-14 20:25:00,31.0,20.2,30.11,SW,224,2.0,6.0,64,0.00,SCT,OVC,0.00,WeatherDisplay:10.37,2013-03-15 00:25:00,
2013-03-14 20:30:00,30.9,20.5,30.11,SW,223,1.0,5.0,65,0.00,SCT,OVC,0.00,WeatherDisplay:10.37,2013-03-15 00:30:00,
2013-03-14 20:35:00,30.8,20.4,30.11,SW,215,2.0,5.0,65,0.00,SCT,OVC,0.00,WeatherDisplay:10.37,2013-03-15 00:35:00,
2013-03-14 20:40:00,30.7,20.7,30.11,SW,218,1.0,4.0,66,0.00,SCT,OVC,0.00,WeatherDisplay:10.37,2013-03-15 00:40:00,
2013-03-14 20:45:00,30.6,20.6,30.11,SW,229,0.0,2.0,66,0.00,SCT,OVC,0.00,WeatherDisplay:10.37,2013-03-15 00:45:00,
2013-03-14 20:50:00,30.5,20.8,30.10,SW,218,1.0,4.0,67,0.00,SCT,OVC,0.00,WeatherDisplay:10.37,2013-03-15 00:50:00,
2013-03-14 20:55:00,30.4,20.7,30.11,SW,216,1.0,3.0,67,0.00,SCT,OVC,0.00,WeatherDisplay:10.37,2013-03-15 00:55:00,
2013-03-14 21:00:00,30.3,21.0,30.10,SW,217,1.0,4.0,68,0.00,SCT,OVC,0.00,WeatherDisplay:10.37,2013-03-15 01:00:00,
2013-03-14 21:05:00,30.3,21.0,30.10,SW,220,1.0,2.0,68,0.00,SCT,OVC,0.00,WeatherDisplay:10.37,2013-03-15 01:05:00,
2013-03-14 21:10:00,30.2,20.9,30.10,WSW,238,0.0,2.0,68,0.00,SCT,OVC,0.00,WeatherDisplay:10.37,2013-03-15 01:10:00,
2013-03-14 21:15:00,30.0,21.1,30.10,WSW,238,1.0,2.0,69,0.00,SCT,OVC,0.00,WeatherDisplay:10.37,2013-03-15 01:15:00,
2013-03-14 21:20:00,30.0,21.1,30.10,WSW,238,0.0,2.0,69,0.00,SCT,OVC,0.00,WeatherDisplay:10.37,2013-03-15 01:20:00,
2013-03-14 21:25:00,30.0,21.4,30.10,WSW,238,0.0,2.0,70,0.00,SCT,OVC,0.00,WeatherDisplay:10.37,2013-03-15 01:25:00,
2013-03-14 21:30:00,30.0,21.4,30.10,SW,232,2.0,3.0,70,0.00,SCT,OVC,0.00,WeatherDisplay:10.37,2013-03-15 01:30:00,
2013-03-14 21:35:00,30.1,21.5,30.10,SSW,211,2.0,4.0,70,0.00,SCT,OVC,0.00,WeatherDisplay:10.37,2013-03-15 01:35:00,
2013-03-14 21:40:00,30.2,21.9,30.10,SSW,201,0.0,3.0,71,0.00,SCT,OVC,0.00,WeatherDisplay:10.37,2013-03-15 01:40:00,
2013-03-14 21:45:00,30.3,21.7,30.10,SSW,202,1.0,2.0,70,0.00,SCT,OVC,0.00,WeatherDisplay:10.37,2013-03-15 01:45:00,
2013-03-14 21:50:00,30.4,22.1,30.10,SSW,207,2.0,4.0,71,0.00,SCT,OVC,0.00,WeatherDisplay:10.37,2013-03-15 01:50:00,
2013-03-14 22:15:00,30.8,22.5,30.09,SSW,207,1.0,3.0,71,0.00,SCT,OVC,0.00,WeatherDisplay:10.37,2013-03-15 02:15:00,
2013-03-14 22:40:00,31.2,23.2,30.08,SW,221,1.0,5.0,72,0.00,SCT,OVC,0.00,WeatherDisplay:10.37,2013-03-15 02:40:00,
2013-03-14 22:45:00,31.3,23.3,30.08,SW,222,3.0,6.0,72,0.00,SCT,OVC,0.00,WeatherDisplay:10.37,2013-03-15 02:45:00,
2013-03-14 22:50:00,31.3,23.3,30.08,SW,224,2.0,5.0,72,0.00,SCT,OVC,0.00,WeatherDisplay:10.37,2013-03-15 02:50:00,
2013-03-14 22:55:00,31.4,23.7,30.08,SW,216,2.0,4.0,73,0.00,SCT,OVC,0.00,WeatherDisplay:10.37,2013-03-15 02:55:00,
2013-03-14 23:00:00,31.4,23.7,30.08,SW,215,2.0,6.0,73,0.00,BKN,OVC,0.00,WeatherDisplay:10.37,2013-03-15 03:00:00,
2013-03-14 23:05:00,31.5,23.8,30.08,SW,221,3.0,6.0,73,0.00,BKN,OVC,0.00,WeatherDisplay:10.37,2013-03-15 03:05:00,
2013-03-14 23:10:00,31.6,23.9,30.08,SW,229,2.0,3.0,73,0.00,BKN,OVC,0.00,WeatherDisplay:10.37,2013-03-15 03:10:00,
2013-03-14 23:20:00,31.7,24.4,30.08,SW,220,1.0,3.0,74,0.00,BKN,OVC,0.00,WeatherDisplay:10.37,2013-03-15 03:20:00,
2013-03-14 23:25:00,31.8,24.5,30.08,SW,216,2.0,5.0,74,0.00,BKN,OVC,0.00,WeatherDisplay:10.37,2013-03-15 03:25:00,
2013-03-14 23:30:00,31.8,24.5,30.08,SSW,213,2.0,4.0,74,0.00,BKN,OVC,0.00,WeatherDisplay:10.37,2013-03-15 03:30:00,
2013-03-14 23:35:00,31.8,24.5,30.07,SSW,213,2.0,5.0,74,0.00,BKN,OVC,0.00,WeatherDisplay:10.37,2013-03-15 03:35:00,
2013-03-14 23:40:00,31.8,24.8,30.07,SSW,212,2.0,4.0,75,0.00,BKN,OVC,0.00,WeatherDisplay:10.37,2013-03-15 03:40:00,
2013-03-14 23:45:00,31.9,24.8,30.07,SW,225,2.0,4.0,75,0.00,BKN,OVC,0.00,WeatherDisplay:10.37,2013-03-15 03:45:00,
2013-03-14 23:50:00,31.9,24.9,30.07,SW,229,1.0,5.0,75,0.00,BKN,OVC,0.00,WeatherDisplay:10.37,2013-03-15 03:50:00,
2013-03-14 23:55:00,31.9,24.9,30.06,SW,226,2.0,4.0,75,0.00,BKN,OVC,0.00,WeatherDisplay:10.37,2013-03-15 03:55:00,